Hayward, CA

5:47 AM PDT on July 22, 2017 (GMT -0700)
Hayward Executive

Weather History for KHWD - February, 2013

Change the Weather History Date:

Thursday, February 7, 2013

  Actual Average Record
Temperature  
Mean Temperature 48 °F 52 °F  
Max Temperature 55 °F 59 °F 77 °F (2016)
Min Temperature 41 °F 44 °F 39 °F (2001)
Degree Days  
Heating Degree Days 17    
Month to date heating degree days 102  
Since 1 July heating degree days 1504  
Cooling Degree Days 0    
Month to date cooling degree days 0  
Year to date cooling degree days 0  
Moisture  
Dew Point 41 °F    
Average Humidity 72    
Maximum Humidity 89    
Minimum Humidity 54    
Precipitation  
Precipitation 0.10 in - 0.58 in (1999)
Month to date precipitation 0.10  
Year to date precipitation 0.29  
Since 1 July precipitation 6.27  
Sea Level Pressure  
Sea Level Pressure 30.14 in    
Wind  
Wind Speed 7 mph (South)    
Max Wind Speed 17 mph    
Max Gust Speed 21 mph    
Visibility 9 miles    
Events Rain    
T = Trace of Precipitation, MM = Missing Value Source: NWS Daily Summary

Daily Weather History Graph

Daily Weather History Graph

Search for Another Location

Airport or City:

Trip Planner

Search our weather history database for the weather conditions in past years. The results will help you decide how hot, cold, wet, or windy it might be!

Date:

Astronomy

Feb. 07, 2013 Rise Set
Actual Time 7:06 AM PST 5:39 PM PST
Civil Twilight 6:39 AM PST 6:06 PM PST
Nautical Twilight 6:08 AM PST 6:37 PM PST
Astronomical Twilight 5:37 AM PST 7:08 PM PST
Moon 4:48 AM PST (2/7) 3:11 PM PST (2/7)
Length of Visible Light 11h 27m
Length of Day
10h 33m
Waning Crescent, 8% of the Moon is Illuminated
Feb 7
Waning Crescent
Feb 9
New
Feb 17
First Quarter
Feb 25
Full
Mar 4
Last Quarter

Hourly Weather History & Observations

Time (PST) Temp. Windchill Dew Point Humidity Pressure Visibility Wind Dir Wind Speed Gust Speed Precip Events Conditions
12:54 AM 44.1 °F 42.5 °F 39.9 °F 85% 30.21 in 10.0 mi ESE 3.5 mph - N/A   Clear
1:54 AM 43.0 °F - 39.9 °F 89% 30.21 in 10.0 mi Calm Calm - N/A   Clear
2:54 AM 43.0 °F 40.3 °F 39.0 °F 86% 30.20 in 7.0 mi ESE 4.6 mph - N/A   Mostly Cloudy
3:54 AM 43.0 °F 38.2 °F 39.0 °F 86% 30.19 in 10.0 mi SE 8.1 mph - N/A   Mostly Cloudy
4:54 AM 44.1 °F 40.8 °F 39.0 °F 82% 30.18 in 10.0 mi SSE 5.8 mph - N/A   Scattered Clouds
5:54 AM 45.0 °F 42.6 °F 39.0 °F 80% 30.17 in 10.0 mi SSE 4.6 mph - N/A   Mostly Cloudy
6:54 AM 44.1 °F 38.6 °F 37.0 °F 76% 30.16 in 10.0 mi SSE 10.4 mph - N/A   Mostly Cloudy
7:54 AM 46.0 °F 41.4 °F 39.0 °F 76% 30.17 in 10.0 mi SSE 9.2 mph - N/A   Mostly Cloudy
8:49 AM 46.4 °F 41.5 °F 39.2 °F 76% 30.14 in 8.0 mi SSE 10.4 mph - 0.00 in Rain Light Rain
8:54 AM 46.9 °F - 39.9 °F 77% 30.17 in 10.0 mi SSE 8.1 mph - 0.00 in Rain Light Rain
9:28 AM 48.2 °F - 41.0 °F 76% 30.15 in 10.0 mi SSE 8.1 mph - 0.00 in Rain Light Rain
9:44 AM 48.2 °F - 42.8 °F 82% 30.16 in 1.8 mi SSW 3.5 mph - 0.01 in Rain Rain
9:54 AM 46.9 °F - 42.1 °F 83% 30.19 in 4.0 mi SE 3.5 mph - 0.02 in Rain Light Rain
9:57 AM 46.4 °F 44.3 °F 42.8 °F 87% 30.16 in 4.0 mi SE 4.6 mph - 0.00 in Rain Light Rain
10:54 AM 50.0 °F - 45.0 °F 83% 30.19 in 10.0 mi SSE 6.9 mph - 0.00 in   Mostly Cloudy
11:54 AM 52.0 °F - 44.1 °F 74% 30.17 in 10.0 mi Variable 4.6 mph - N/A   Overcast
12:54 PM 54.0 °F - 44.1 °F 69% 30.14 in 10.0 mi West 6.9 mph - N/A   Partly Cloudy
1:54 PM 54.0 °F - 43.0 °F 66% 30.13 in 10.0 mi West 9.2 mph - N/A   Partly Cloudy
2:54 PM 55.0 °F - 42.1 °F 62% 30.12 in 10.0 mi WNW 11.5 mph - N/A   Clear
3:54 PM 53.1 °F - 37.9 °F 57% 30.11 in 10.0 mi WNW 13.8 mph - N/A   Clear
4:54 PM 52.0 °F - 39.0 °F 61% 30.11 in 10.0 mi West 11.5 mph - N/A   Clear
5:54 PM 50.0 °F - 39.0 °F 66% 30.10 in 10.0 mi West 8.1 mph - N/A   Clear
6:54 PM 48.9 °F - 37.9 °F 66% 30.09 in 10.0 mi West 6.9 mph - N/A   Clear
7:54 PM 48.9 °F - 39.0 °F 69% 30.08 in 10.0 mi SW 3.5 mph - N/A   Mostly Cloudy
8:19 PM 46.4 °F 39.8 °F 41.0 °F 81% 30.06 in 7.0 mi WNW 16.1 mph - 0.01 in Rain Rain
8:54 PM 45.0 °F 43.5 °F 41.0 °F 86% 30.09 in 10.0 mi North 3.5 mph - 0.06 in Rain Light Rain
9:54 PM 46.0 °F 43.1 °F 41.0 °F 83% 30.07 in 7.0 mi SSW 5.8 mph - 0.02 in Rain Light Rain
10:54 PM 44.1 °F 41.5 °F 41.0 °F 89% 30.05 in 10.0 mi SSE 4.6 mph - 0.00 in   Partly Cloudy